Printer-friendly version

IAU Minor Planet Center

Minor Planet Center

MPEC 2006-B78 : 2006 BO55

The following Minor Planet Electronic Circular may be linked-to from your own Web pages, but must not otherwise be redistributed electronically.


Read MPEC 2006-B77 Read MPEC 2006-B79


M.P.E.C. 2006-B78                                Issued 2006 Jan. 28, 19:21 UT

     The Minor Planet Electronic Circulars contain information on unusual
         minor planets and routine data on comets.  They are published
   on behalf of Commission 20 of the International Astronomical Union by the
          Minor Planet Center, Smithsonian Astrophysical Observatory,
                          Cambridge, MA 02138, U.S.A.

                  Supported in part by the Brinson Foundation
                  Supported in part by the TABASGO Foundation
             Prepared using the Tamkin Foundation Computer Network

                              MPC@CFA.HARVARD.EDU
          URL http://cfa-www.harvard.edu/iau/mpc.html  ISSN 1523-6714

                                   2006 BO55

Observations:
     K06B55O* C2006 01 27.15970 04 07 27.84 +24 21 11.4          21.1 V EB078G96
     K06B55O  C2006 01 27.16518 04 07 27.98 +24 20 58.0          20.9 V EB078G96
     K06B55O  C2006 01 27.17068 04 07 28.20 +24 20 43.3          21.4 V EB078G96
     K06B55O  C2006 01 27.17617 04 07 28.38 +24 20 31.3          20.5 V EB078G96
     K06B55O  C2006 01 27.21071 04 07 29.46 +24 19 07.7          20.4 V EB078G96
     K06B55O  C2006 01 27.21675 04 07 29.67 +24 18 52.5          20.8 V EB078G96
     K06B55O  C2006 01 27.22284 04 07 29.85 +24 18 37.4          21.1 V EB078G96
     K06B55O  C2006 01 27.22885 04 07 30.07 +24 18 22.8          21.2 V EB078G96
     K06B55O  C2006 01 28.19383 04 08 07.80 +23 39 39.5          21.1 V EB078G96
     K06B55O  C2006 01 28.19973 04 08 08.01 +23 39 25.7          21.2 V EB078G96
     K06B55O  C2006 01 28.20562 04 08 08.18 +23 39 11.5          21.7 V EB078G96

Observer details:
G96 Mt. Lemmon Survey.  Observer E. J. Christensen.  Measurers E. C. Beshore,
    E. J. Christensen, G. J. Garradd, A. D. Grauer, R. E. Hill, R. A. Kowalski,
    S. M. Larson, R. H. McNaught.  1.5-m reflector + CCD.

Orbital elements:
2006 BO55                                                Earth MOID = 0.3143 AU
Epoch 2006 Jan. 25.0 TT = JDT 2453760.5                 MPC
M 342.78585              (2000.0)            P               Q
n   0.25402055     Peri.  231.71424     -0.85226096     -0.31045678
a   2.4692031      Node   286.52061     +0.49812781     -0.72742004
e   0.5191713      Incl.   26.05040     -0.15974959     -0.61194499
P   3.88           H   19.8           G   0.15
From 11 observations 2006 Jan. 27-28.

Ephemeris:
2006 BO55                a,e,i = 2.47, 0.52, 26                  q = 1.1873
Date    TT    R. A. (2000) Decl.     Delta      r     Elong.  Phase     V
2006 01 25    04 06.28   +25 49.1    0.625    1.403   119.6    37.6    21.0
2006 02 04    04 14.04   +19 16.6    0.643    1.350   110.1    43.3    21.2
2006 02 14    04 26.79   +13 24.7    0.669    1.302   101.9    47.9    21.3
2006 02 24    04 43.40   +08 12.9    0.698    1.261    95.2    51.4    21.4
2006 03 06    05 03.13   +03 35.1    0.728    1.228    89.8    53.9    21.5
2006 03 16    05 25.46   -00 36.5    0.756    1.204    85.8    55.5    21.6
2006 03 26    05 50.04   -04 28.0    0.783    1.191    83.0    56.3    21.7
2006 04 05    06 16.82   -08 03.8    0.807    1.188    81.4    56.4    21.8
2006 04 15    06 45.81   -11 26.7    0.830    1.195    80.8    55.9    21.8
2006 04 25    07 17.08   -14 37.1    0.854    1.214    81.0    55.0    21.9
2006 05 05    07 50.75   -17 33.9    0.879    1.242    82.0    53.5    22.0
2006 05 15    08 26.72   -20 15.0    0.910    1.279    83.3    51.7    22.0

Kyle E. Smalley              (C) Copyright 2006 MPC           M.P.E.C. 2006-B78

Read MPEC 2006-B77 Read MPEC 2006-B79


Our Web policy. Index to the CBAT/MPC/ICQ pages.


Valid HTML 4.01!